Powrót do katalogu

STARLINK-33765

AktywnyŁącznośćVLEO
NORAD 63473·PAYLOAD·🇺🇸 United States

Wystrzelony Apr 6, 2025 z Cape Canaveral Space Force Station

Loading…

Następne Przeloty (najbliższe 24 godziny)

TLE

ŚwieżeSource: CelesTrak SupGP

Epoka: Sep 14, 2026, 20:49 UTC

1 63473C 25070P   26257.86784722  .00010168  00000+0  36843-3 0  2572
2 63473  43.0012 271.5328 0001593 273.0759 225.0987 15.27561162    14

Śledź STARLINK-33765 w czasie rzeczywistym z AllMySat

Download on the App Store